Location: Cactus School
(34.5700°N, 118.0931°W)
Time: 10:04:51
(UTC-07:00)

S-56A Canister/Altair - Pass Details

Date: 19 April 2024
Orbit: 638 x 2488 km, 38.9° (Epoch: 29 May)

Event Time Altitude Azimuth Distance (km) Brightness Sun altitude
Rises 18:14:34 0° 257° (WSW) 3,145 12.2 14.1°
Reaches altitude 10° 18:16:40 10° 259° (W) 2,345 11.9 13.6°
Maximum altitude 18:22:06 76° 345° (NNW) 1,016 8.5 12.5°
Drops below altitude 10° 18:30:12 10° 72° (ENE) 3,425 10.3 10.9°
Sets 18:33:51 0° 74° (ENE) 4,713 11.0 10.1°
